When you browse on this site, cookies collect data to enhance your experience and personalize the content and advertising you see.
Visit our Privacy Policy to learn more. By continuing to use the site, you agree to this use of cookies and data.
  • en Suisse
  • Liste des pays
  • À 7 jours
  • Température de l'eau
  • Carte satellitaire
  • Carte météo
  • Widgets météo
  • user-avatar
    Se connecter

    Météo par heure à Xinqing

    Ce jour, 26 Mai, Dimanche

    Heure Température Précipitation Vent Pression Humidité
    00:00 +11°C° 0 mm 1 m/s 726 mmHg 84%
    01:00 +11°C° 0 mm 1 m/s 727 mmHg 82%
    02:00 +11°C° 0 mm 1 m/s 727 mmHg 79%
    03:00 +11°C° 0 mm 1 m/s 728 mmHg 73%
    04:00 +12°C° 0 mm 1 m/s 728 mmHg 72%
    05:00 +12°C° 0 mm 1 m/s 728 mmHg 71%
    06:00 +12°C° 0 mm 1 m/s 729 mmHg 71%
    07:00 +13°C° 0 mm 1 m/s 729 mmHg 70%
    08:00 +13°C° 0 mm 1 m/s 729 mmHg 68%
    09:00 +13°C° 0 mm 1 m/s 729 mmHg 71%
    10:00 +13°C° 0.3 mm 1 m/s 729 mmHg 77%
    11:00 +13°C° 0.3 mm 1 m/s 729 mmHg 82%
    12:00 +13°C° 0.3 mm 1 m/s 729 mmHg 88%
    13:00 +13°C° 0.5 mm 1 m/s 729 mmHg 89%
    14:00 +13°C° 0.5 mm 1 m/s 729 mmHg 90%
    15:00 +13°C° 0.5 mm 1 m/s 730 mmHg 91%
    16:00 +12°C° 0.4 mm 1 m/s 729 mmHg 92%
    17:00 +12°C° 0.4 mm 1 m/s 729 mmHg 92%
    18:00 +12°C° 0.4 mm 2 m/s 729 mmHg 93%
    19:00 +10°C° 1 mm 2 m/s 729 mmHg 94%
    20:00 +10°C° 1 mm 2 m/s 729 mmHg 94%
    21:00 +10°C° 1 mm 2 m/s 728 mmHg 94%
    22:00 +9°C° 2.8 mm 2 m/s 728 mmHg 95%
    23:00 +9°C° 2.8 mm 2 m/s 728 mmHg 95%

    Demain, 27 Mai, Lundi

    Heure Température Précipitation Vent Pression Humidité
    00:00 +9°C° 2.8 mm 3 m/s 728 mmHg 96%
    01:00 +8°C° 3.9 mm 3 m/s 727 mmHg 96%
    02:00 +8°C° 3.9 mm 3 m/s 727 mmHg 96%
    03:00 +7°C° 3.9 mm 4 m/s 726 mmHg 97%
    04:00 +7°C° 2.3 mm 4 m/s 725 mmHg 97%
    05:00 +7°C° 2.3 mm 4 m/s 725 mmHg 97%
    06:00 +7°C° 2.3 mm 4 m/s 724 mmHg 97%
    07:00 +7°C° 2.4 mm 4 m/s 723 mmHg 97%
    08:00 +8°C° 2.4 mm 3 m/s 723 mmHg 97%
    09:00 +8°C° 2.4 mm 3 m/s 722 mmHg 97%
    10:00 +8°C° 2.7 mm 3 m/s 722 mmHg 97%
    11:00 +8°C° 2.7 mm 3 m/s 722 mmHg 97%
    12:00 +9°C° 2.7 mm 3 m/s 721 mmHg 96%
    13:00 +9°C° 1.2 mm 3 m/s 721 mmHg 96%
    14:00 +8°C° 1.2 mm 4 m/s 720 mmHg 96%
    15:00 +8°C° 1.2 mm 4 m/s 720 mmHg 96%
    16:00 +8°C° 0.7 mm 4 m/s 720 mmHg 95%
    17:00 +8°C° 0.7 mm 4 m/s 720 mmHg 95%
    18:00 +8°C° 0.7 mm 4 m/s 719 mmHg 95%
    19:00 +7°C° 0.1 mm 4 m/s 719 mmHg 94%
    20:00 +7°C° 0.1 mm 4 m/s 719 mmHg 94%
    21:00 +7°C° 0.1 mm 4 m/s 719 mmHg 93%
    22:00 +8°C° 0 mm 3 m/s 718 mmHg 94%
    23:00 +8°C° 0 mm 3 m/s 718 mmHg 94%

    Après-demain, 28 Mai, Mardi

    Heure Température Précipitation Vent Pression Humidité
    00:00 +7°C° 0 mm 3 m/s 718 mmHg 95%
    01:00 +7°C° 0.1 mm 3 m/s 717 mmHg 94%
    02:00 +6°C° 0.1 mm 4 m/s 717 mmHg 93%
    03:00 +7°C° 0.1 mm 5 m/s 716 mmHg 93%
    04:00 +7°C° 0.3 mm 5 m/s 716 mmHg 93%
    05:00 +7°C° 0.3 mm 5 m/s 715 mmHg 92%
    06:00 +7°C° 0.3 mm 5 m/s 715 mmHg 92%
    07:00 +7°C° 0.2 mm 6 m/s 714 mmHg 91%
    08:00 +7°C° 0.2 mm 6 m/s 714 mmHg 90%
    09:00 +7°C° 0.2 mm 6 m/s 713 mmHg 89%
    10:00 +7°C° 0.5 mm 6 m/s 713 mmHg 90%
    11:00 +7°C° 0.5 mm 6 m/s 713 mmHg 91%
    12:00 +5°C° 0.5 mm 6 m/s 713 mmHg 92%
    13:00 +6°C° 0.5 mm 5 m/s 712 mmHg 92%
    14:00 +6°C° 0.5 mm 5 m/s 712 mmHg 93%
    15:00 +6°C° 0.5 mm 5 m/s 712 mmHg 93%
    16:00 +6°C° 0.9 mm 5 m/s 711 mmHg 94%
    17:00 +6°C° 0.9 mm 4 m/s 711 mmHg 94%
    18:00 +6°C° 0.9 mm 4 m/s 711 mmHg 95%
    19:00 +6°C° 0.9 mm 4 m/s 711 mmHg 96%
    20:00 +6°C° 0.9 mm 4 m/s 711 mmHg 96%
    21:00 +6°C° 0.9 mm 4 m/s 711 mmHg 96%
    22:00 +6°C° 0.5 mm 4 m/s 711 mmHg 96%
    23:00 +7°C° 0.5 mm 3 m/s 711 mmHg 97%

    29 Mai, Mercredi

    Heure Température Précipitation Vent Pression Humidité
    00:00 +7°C° 0.5 mm 3 m/s 712 mmHg 97%
    01:00 +7°C° 0.9 mm 3 m/s 712 mmHg 97%
    02:00 +7°C° 0.9 mm 3 m/s 712 mmHg 97%
    03:00 +7°C° 0.9 mm 3 m/s 712 mmHg 97%
    04:00 +7°C° 1 mm 3 m/s 712 mmHg 97%
    05:00 +7°C° 1 mm 3 m/s 712 mmHg 97%
    06:00 +7°C° 1 mm 3 m/s 713 mmHg 97%
    07:00 +6°C° 0.4 mm 4 m/s 713 mmHg 96%
    08:00 +6°C° 0.4 mm 4 m/s 714 mmHg 95%
    09:00 +7°C° 0.4 mm 4 m/s 714 mmHg 95%
    10:00 +7°C° 0.5 mm 4 m/s 715 mmHg 94%
    11:00 +7°C° 0.5 mm 4 m/s 715 mmHg 94%
    12:00 +8°C° 0.5 mm 4 m/s 716 mmHg 93%
    13:00 +9°C° 0.3 mm 5 m/s 716 mmHg 89%
    14:00 +10°C° 0.3 mm 5 m/s 716 mmHg 84%
    15:00 +12°C° 0.3 mm 5 m/s 717 mmHg 80%
    16:00 +12°C° 0.1 mm 5 m/s 717 mmHg 76%
    17:00 +12°C° 0.1 mm 5 m/s 717 mmHg 72%
    18:00 +13°C° 0.1 mm 4 m/s 718 mmHg 68%
    19:00 +11°C° 0 mm 3 m/s 718 mmHg 76%
    20:00 +9°C° 0 mm 2 m/s 718 mmHg 84%
    21:00 +9°C° 0 mm 1 m/s 718 mmHg 91%
    22:00 +8°C° 0 mm 1 m/s 718 mmHg 93%
    23:00 +7°C° 0 mm 1 m/s 718 mmHg 94%

    30 Mai, Jeudi

    Heure Température Précipitation Vent Pression Humidité
    00:00 +7°C° 0 mm 1 m/s 718 mmHg 95%
    01:00 +7°C° 0 mm 1 m/s 718 mmHg 95%
    02:00 +6°C° 0 mm 1 m/s 718 mmHg 95%
    03:00 +6°C° 0 mm 1 m/s 718 mmHg 95%
    04:00 +6°C° 0 mm 0 m/s 718 mmHg 91%
    05:00 +7°C° 0 mm 0 m/s 718 mmHg 88%
    06:00 +8°C° 0 mm 0 m/s 718 mmHg 85%
    07:00 +10°C° 0.3 mm 0 m/s 718 mmHg 82%
    08:00 +12°C° 0.3 mm 0 m/s 718 mmHg 80%
    09:00 +14°C° 0.3 mm 0 m/s 718 mmHg 78%
    10:00 +15°C° 0.6 mm 0 m/s 718 mmHg 76%
    11:00 +16°C° 0.6 mm 0 m/s 718 mmHg 75%
    12:00 +19°C° 0.6 mm 1 m/s 718 mmHg 73%
    13:00 +18°C° 1.6 mm 1 m/s 717 mmHg 77%
    14:00 +16°C° 1.6 mm 1 m/s 717 mmHg 80%
    15:00 +15°C° 1.6 mm 1 m/s 717 mmHg 84%
    16:00 +15°C° 0.7 mm 1 m/s 717 mmHg 87%
    17:00 +14°C° 0.7 mm 1 m/s 717 mmHg 91%
    18:00 +13°C° 0.7 mm 1 m/s 717 mmHg 94%
    19:00 +12°C° 0.4 mm 1 m/s 717 mmHg 95%
    20:00 +11°C° 0.4 mm 1 m/s 717 mmHg 95%
    21:00 +10°C° 0.4 mm 1 m/s 717 mmHg 96%
    22:00 +10°C° 0.2 mm 1 m/s 717 mmHg 96%
    23:00 +9°C° 0.2 mm 1 m/s 717 mmHg 97%

    31 Mai, Vendredi

    Heure Température Précipitation Vent Pression Humidité
    00:00 +9°C° 0.2 mm 1 m/s 717 mmHg 97%
    01:00 +9°C° 0 mm 1 m/s 717 mmHg 97%
    02:00 +8°C° 0 mm 1 m/s 717 mmHg 98%
    03:00 +8°C° 0 mm 1 m/s 717 mmHg 98%
    04:00 +7°C° 0 mm 2 m/s 717 mmHg 98%
    05:00 +8°C° 0 mm 2 m/s 717 mmHg 98%
    06:00 +8°C° 0 mm 3 m/s 717 mmHg 98%
    07:00 +9°C° 0 mm 3 m/s 718 mmHg 96%
    08:00 +9°C° 0 mm 3 m/s 718 mmHg 94%
    09:00 +10°C° 0 mm 3 m/s 718 mmHg 92%
    10:00 +11°C° 0.1 mm 3 m/s 718 mmHg 86%
    11:00 +13°C° 0.1 mm 3 m/s 718 mmHg 79%
    12:00 +14°C° 0.1 mm 3 m/s 719 mmHg 73%
    13:00 +16°C° 0.4 mm 3 m/s 719 mmHg 72%
    14:00 +16°C° 0.4 mm 3 m/s 719 mmHg 71%
    15:00 +17°C° 0.4 mm 3 m/s 719 mmHg 70%
    16:00 +17°C° 0.3 mm 3 m/s 719 mmHg 70%
    17:00 +17°C° 0.3 mm 3 m/s 719 mmHg 71%
    18:00 +17°C° 0.3 mm 2 m/s 719 mmHg 71%
    19:00 +15°C° 0.3 mm 2 m/s 720 mmHg 79%
    20:00 +13°C° 0.3 mm 1 m/s 720 mmHg 87%
    21:00 +11°C° 0.3 mm 1 m/s 720 mmHg 94%
    22:00 +10°C° 0 mm 1 m/s 720 mmHg 95%
    23:00 +10°C° 0 mm 1 m/s 720 mmHg 95%
    Voir plus